Voltar ao catálogo

SL-8 DEB *

AtivoLEO
NORAD 13500·DEBRIS·🇷🇺 Russia

Lançado Feb 17, 1978 de Plesetsk Cosmodrome

Loading…

Próximas Passagens (próximas 24 horas)

TLE

AtualizadoSource: Space-Track

Época: Sep 14, 2026, 09:13 UTC

1 13500U 78019C   26257.38442248  .00003141  00000-0  38134-3 0  9992
2 13500  74.0508 249.8175 0008833 323.4253  36.6321 14.83977117639912

Acompanhe SL-8 DEB * em tempo real com AllMySat

Download on the App Store